Location: Capannuccia
(43.7000°N, 11.3000°E)
Time: 21:29:04
(UTC+00:00)

CZ-2D R/B - Visible Passes

Search period start: 29 September 2020 00:00
Search period end: 09 October 2020 00:00
Orbit: 791 x 845 km, 98.7° (Epoch: 28 September)

Date Brightness Start Highest point End Pass type
(mag) Time Alt. Az. Time Alt. Az. Time Alt. Az.
29 Sep 4.3 01:47:14 10° N 01:48:24 16° N 01:48:24 16° N visible
30 Sep 4.5 01:25:44 10° N 01:26:45 16° N 01:26:45 16° N visible
01 Oct 4.7 01:04:23 10° NNE 01:05:07 14° NNE 01:05:07 14° NNE visible
02 Oct 4.9 00:43:09 10° NNE 00:43:30 12° NNE 00:43:30 12° NNE visible
02 Oct 4.5 02:24:25 10° NNW 02:24:48 11° NNW 02:24:48 11° NNW visible
03 Oct 4.5 02:02:33 10° N 02:03:11 13° NNW 02:03:11 13° NNW visible
04 Oct 4.6 01:40:56 10° N 01:41:32 13° N 01:41:32 13° N visible
05 Oct 4.8 01:19:28 10° N 01:19:54 12° N 01:19:54 12° N visible
06 Oct 5.0 00:58:09 10° NNE 00:58:16 11° NNE 00:58:16 11° NNE visible
08 Oct 4.7 01:56:13 10° N 01:56:19 11° N 01:56:19 11° N visible
